Вернуться в каталог

STARLINK-11235

АктивенСвязьVLEO
NORAD 60726·PAYLOAD·🇺🇸 United States

Запущен Aug 28, 2024 с Cape Canaveral Space Force Station

Loading…

Ближайшие Пролёты (ближайшие 24 часа)

TLE

СвежийSource: CelesTrak SupGP

Эпоха: Sep 14, 2026, 21:36 UTC

1 60726C 24152G   26257.90048611  .00057623  00000+0  47461-3 0  2570
2 60726  53.1569 263.4886 0001053  99.6021 241.3936 15.69683553    15

Отслеживайте STARLINK-11235 в реальном времени с AllMySat

Download on the App Store